[[{"header":{"parameterUnit":"m.s-1","parameterCategory":1,"la1":30.2991,"la2":30.254,"lo1":-89.0895,"lo2":-89.0444,"dy":0.0017,"dx":0.0017,"nx":28,"ny":28,"refTime":"2024-03-19T03:00:00:Z","depth":0,"parameterNumber":2,"parameterNumberName":"U-component_of_WINDS"},"data":[0,0,0,0,0,0,0,0,0,0,0,0,0,0,0,0,0,0,0,0,0,0,0,0,0,0,0,0,0,0,0,0,0,0,0,0,0,0,0,0,0,0,0,0,0,0,0,0,0,0,0,0,0,0,0,0,0,0,2.581,2.5811,0,2.5894,2.5895,2.5896,2.5899,2.5898,2.5897,2.5896,2.598,2.5983,2.5986,0,0,0,0,0,0,0,0,0,0,0,0,0,2.5646,2.5649,2.581,2.5811,2.5812,2.5894,2.5895,2.5897,2.5899,2.5898,2.5897,2.5896,2.5979,2.5982,2.5986,0,0,0,0,0,0,0,0,0,0,0,0,0,2.5722,2.565,2.581,2.5823,2.5825,2.5894,2.5895,2.5897,2.5899,2.5898,2.5896,2.5895,2.5977,2.5982,2.5987,2.6047,0,0,2.6001,2.6003,0,0,0,0,0,0,0,0,2.5718,2.5728,2.582,2.5822,2.5825,2.5885,2.5868,2.5947,2.59,2.5871,2.5896,2.5894,2.5949,2.5956,2.5975,2.6051,2.6054,2.6002,2.6005,2.6007,2.6008,0,0,0,0,0,0,0,2.5713,2.5725,2.5843,2.5821,2.5824,2.5824,2.5833,2.5883,2.5918,2.5874,2.5874,2.5884,2.595,2.5971,2.5977,2.6056,2.6002,2.6006,2.6009,2.6011,2.618,2.6182,0,0,0,0,0,0,2.5705,2.572,2.5841,2.5846,2.5767,2.5828,2.5838,2.5867,2.5917,2.5923,2.5885,2.5884,2.5963,2.5972,2.598,2.6051,2.6007,2.6011,2.6014,2.6179,2.6181,2.6183,0,0,0,0,0,0,2.5702,2.5716,2.5837,2.5783,2.5799,2.5832,2.5865,2.5869,2.589,2.5926,2.5932,2.59,2.5962,2.5974,2.603,2.6054,2.6013,2.6018,2.6177,2.6179,2.6182,2.6194,0,0,0,0,0,0,2.5697,2.5715,2.5739,2.5784,2.5802,2.5886,2.5866,2.5872,2.5899,2.5898,2.5942,2.5947,2.5962,2.6022,2.6034,2.606,2.6021,2.6175,2.6178,2.6181,2.6192,2.6197,2.6201,0,0,0,0,0,2.5691,2.574,2.574,2.5755,2.5833,2.5888,2.5898,2.5915,2.5901,2.5924,2.5947,2.5946,2.605,2.6028,2.6042,2.6069,2.6173,2.6177,2.6181,2.619,2.6196,2.6201,0,0,0,0,0,0,2.5697,2.5746,2.5747,2.5812,2.5846,2.5888,2.5919,2.5921,2.5959,2.5956,2.5975,2.5985,2.6039,2.606,2.6035,2.6128,2.611,2.6116,2.6112,2.6118,2.6123,2.6116,2.6025,0,0,0,0,0,2.5706,2.5747,2.5788,2.5841,2.5858,2.5885,2.591,2.592,2.5955,2.5969,2.5996,2.603,2.6069,2.6095,2.6134,2.6195,2.6203,2.6221,2.6225,2.6229,2.6234,2.6264,2.6271,2.6195,2.6195,2.6195,0,0,2.5724,2.5756,2.5781,2.5842,2.587,2.5911,2.5897,2.5942,2.5972,2.5976,2.603,2.6051,2.6089,2.6147,2.6174,2.6166,2.6257,2.6234,2.6236,2.6239,2.6269,2.6276,2.6282,2.6197,2.6197,2.6196,0,0,2.5778,2.5808,2.5853,2.5881,2.5922,2.594,2.5951,2.5993,2.6007,2.6062,2.6064,2.61,2.6169,2.6195,2.6217,2.6279,2.6278,2.6291,2.6315,2.6344,2.635,2.6356,2.6375,2.6381,2.6296,2.6296,2.6296,0,2.5795,2.5858,2.5876,2.592,2.5946,2.5952,2.5996,2.6022,2.6074,2.609,2.6081,2.6166,2.6192,2.6255,2.6269,2.6289,2.6299,2.6285,2.6348,2.6354,2.6359,2.6377,2.6385,2.6297,2.6297,2.6297,2.6297,0,2.5875,2.5919,2.5951,2.6,2.603,2.6074,2.6097,2.6124,2.6131,2.6149,2.6203,2.6235,2.6278,2.6294,2.6302,2.6357,2.635,2.6345,2.6326,2.6367,2.6384,2.6392,2.6299,2.6298,2.6298,2.6298,0,0,2.5935,2.5993,2.6004,2.6025,2.6071,2.6104,2.6147,2.6191,2.6212,2.6247,2.6282,2.634,2.6334,2.6359,2.6369,2.6396,2.6438,2.6386,2.6387,2.6392,2.6497,2.65,2.6508,2.6439,2.644,2.6441,2.6493,0,2.5991,2.607,2.6086,2.6153,2.6191,2.6196,2.6234,2.6264,2.6282,2.6316,2.6335,2.6375,2.6365,2.638,2.6407,2.6427,2.6459,2.6424,2.6469,2.647,2.6457,2.6517,2.6521,2.6568,2.65,2.6501,2.6502,0,2.6068,2.6104,2.6175,2.6212,2.6229,2.6263,2.6302,2.6336,2.6369,2.638,2.6408,2.6414,2.6457,2.6438,2.6496,2.6472,2.6491,2.6504,2.6506,2.6509,2.6487,2.6519,2.6584,2.659,2.6514,2.6513,2.6512,0,2.61,2.6167,2.6217,2.6236,2.6282,2.6305,2.6325,2.6357,2.6381,2.6416,2.6431,2.647,2.649,2.6519,2.6535,2.6521,2.6591,2.6574,2.6599,2.6598,2.6612,2.661,2.6678,2.6628,2.6628,2.6628,2.6628,0,2.616,2.6202,2.6232,2.6262,2.6309,2.6327,2.6372,2.6391,2.642,2.6453,2.646,2.649,2.6511,2.6544,2.6557,2.6601,2.6611,2.6619,2.6622,2.6617,2.6616,2.6629,2.6625,2.663,2.663,2.6629,2.6629,0,2.6204,2.6226,2.628,2.6319,2.6329,2.6361,2.6394,2.6422,2.644,2.6481,2.6492,2.6519,2.6557,2.6577,2.6625,2.6634,2.6682,2.6684,2.6671,2.6671,2.6694,2.6691,2.677,2.678,2.6726,2.6727,2.6727,0,2.6239,2.6272,2.6314,2.6336,2.6357,2.6394,2.6418,2.6436,2.6461,2.6501,2.6524,2.6563,2.6595,2.6656,2.6679,2.6715,2.6716,2.6741,2.6721,2.6715,2.6713,2.671,2.6712,2.6744,2.6745,2.6745,2.6746,0,2.6299,2.6308,2.6343,2.6382,2.641,2.6441,2.6472,2.649,2.6513,2.654,2.6579,2.6604,2.6653,2.669,2.6728,2.6747,2.6749,2.6752,2.6759,2.6754,2.6743,2.6746,2.6678,2.675,2.6749,2.6749,2.6749,2.6748,2.6338,2.6366,2.6399,2.6437,2.6462,2.649,2.6518,2.6538,2.6572,2.6613,2.6622,2.6663,2.6693,2.6744,2.6764,2.6795,2.679,2.6801,2.6803,2.6805,2.6804,2.674,2.6802,2.6802,2.6802,2.6802,2.6802,0,2.6395,2.6417,2.6452,2.6494,2.6523,2.6524,2.6557,2.6581,2.6618,2.6647,2.6678,2.6722,2.6758,2.6783,2.6819,2.6839,2.6841,2.6848,2.6845,2.6849,2.6809,2.6798,2.6845,2.6845,2.6845,2.6845,2.6845,2.6845,2.6429,2.6475,2.6487,2.6545,2.6566,2.6606,2.6625,2.6649,2.6672,2.6721,2.6751,2.6768,2.6795,2.6832,2.6865,2.6871,2.6883,2.6889,2.6895,2.6857,2.6852,2.6848,2.6837,2.6892,2.6892,2.6932,2.6933,2.6933]},{"header":{"parameterUnit":"m.s-1","parameterCategory":1,"la1":30.2991,"la2":30.254,"lo1":-89.0895,"lo2":-89.0444,"dy":0.0017,"dx":0.0017,"nx":28,"ny":28,"refTime":"2024-03-19T03:00:00:Z","depth":0,"parameterNumber":3,"parameterNumberName":"V-component_of_WINDS"},"data":[0,0,0,0,0,0,0,0,0,0,0,0,0,0,0,0,0,0,0,0,0,0,0,0,0,0,0,0,0,0,0,0,0,0,0,0,0,0,0,0,0,0,0,0,0,0,0,0,0,0,0,0,0,0,0,0,0,0,2.2045,2.2045,0,2.2043,2.2043,2.2043,2.2019,2.2018,2.2017,2.2017,2.2014,2.2014,2.2014,0,0,0,0,0,0,0,0,0,0,0,0,0,2.2026,2.2026,2.2045,2.2045,2.2045,2.2043,2.2043,2.2043,2.2019,2.2018,2.2017,2.2017,2.2013,2.2014,2.2015,0,0,0,0,0,0,0,0,0,0,0,0,0,2.203,2.2026,2.2045,2.2033,2.2032,2.2043,2.2043,2.2043,2.2019,2.2018,2.2017,2.2016,2.2013,2.2014,2.2015,2.2037,0,0,2.2017,2.2017,0,0,0,0,0,0,0,0,2.203,2.2031,2.2034,2.2034,2.2032,2.203,2.2035,2.2041,2.2019,2.2024,2.2017,2.2016,2.202,2.202,2.2021,2.2037,2.2037,2.2017,2.2017,2.2018,2.2018,0,0,0,0,0,0,0,2.2029,2.203,2.2044,2.2035,2.2033,2.2026,2.2026,2.2036,2.2027,2.2023,2.2021,2.2022,2.2019,2.2021,2.2021,2.2037,2.2017,2.2018,2.2018,2.2018,2.2069,2.207,0,0,0,0,0,0,2.2031,2.203,2.2044,2.2044,2.2029,2.2028,2.2027,2.2032,2.2027,2.2025,2.2022,2.202,2.202,2.202,2.2021,2.2046,2.2018,2.2018,2.2019,2.2068,2.2069,2.207,0,0,0,0,0,0,2.2031,2.2032,2.2044,2.2037,2.2038,2.2029,2.2034,2.2032,2.2034,2.2026,2.2024,2.2026,2.2019,2.202,2.2033,2.2045,2.2019,2.2019,2.2067,2.2069,2.207,2.2097,0,0,0,0,0,0,2.203,2.2033,2.2042,2.2037,2.2038,2.2057,2.2035,2.2033,2.2035,2.2033,2.2029,2.2027,2.2019,2.2032,2.2034,2.2046,2.202,2.2066,2.2068,2.2069,2.2094,2.2099,2.2102,0,0,0,0,0,2.203,2.205,2.2042,2.2044,2.205,2.2058,2.2059,2.2048,2.2037,2.2045,2.204,2.2028,2.2044,2.2034,2.2035,2.2048,2.2065,2.2067,2.2069,2.2093,2.2098,2.2102,0,0,0,0,0,0,2.2056,2.2049,2.2041,2.206,2.206,2.2054,2.2065,2.2054,2.2057,2.2055,2.2042,2.2041,2.2056,2.2053,2.2042,2.2068,2.2052,2.2055,2.207,2.2074,2.2078,2.2078,2.202,0,0,0,0,0,2.2064,2.2072,2.2065,2.2083,2.2083,2.2074,2.2077,2.2069,2.2068,2.2068,2.2064,2.2063,2.2067,2.2071,2.2075,2.2094,2.2092,2.2103,2.2107,2.211,2.2112,2.2121,2.2125,2.2077,2.2077,2.2077,0,0,2.2081,2.2078,2.2084,2.2088,2.2087,2.2094,2.2074,2.2083,2.2088,2.2069,2.2081,2.2078,2.2076,2.2092,2.2098,2.209,2.2125,2.2113,2.2116,2.2116,2.2123,2.2128,2.2132,2.2079,2.2078,2.2078,0,0,2.2114,2.2114,2.2127,2.2126,2.2125,2.2119,2.2122,2.2117,2.2114,2.2126,2.2111,2.2117,2.2126,2.2124,2.2125,2.2157,2.2145,2.2158,2.2178,2.2186,2.219,2.2193,2.2203,2.2207,2.2161,2.2161,2.2161,0,2.2135,2.2146,2.2136,2.2145,2.2147,2.213,2.2143,2.2142,2.2142,2.2143,2.2134,2.2144,2.2141,2.2156,2.2163,2.2165,2.2167,2.2158,2.219,2.2194,2.2196,2.2205,2.2209,2.2162,2.2162,2.2162,2.2162,0,2.2171,2.2179,2.219,2.219,2.2193,2.2204,2.2194,2.2198,2.219,2.2184,2.2195,2.2191,2.2194,2.2197,2.2189,2.2209,2.2204,2.2193,2.2176,2.2203,2.2211,2.2214,2.2164,2.2164,2.2163,2.2163,0,0,2.2222,2.2215,2.2219,2.2218,2.2214,2.222,2.223,2.2232,2.2235,2.2235,2.2242,2.2249,2.2238,2.2239,2.2231,2.2238,2.2261,2.2225,2.2225,2.2231,2.2281,2.2289,2.2293,2.2253,2.2254,2.2255,2.2281,0,2.2253,2.227,2.226,2.2278,2.2284,2.2267,2.2275,2.2274,2.2268,2.2272,2.2266,2.2271,2.2257,2.2257,2.2263,2.2257,2.2271,2.2255,2.2258,2.2259,2.2258,2.2298,2.2306,2.2331,2.2284,2.2285,2.2285,0,2.2292,2.2294,2.2312,2.2306,2.2308,2.2316,2.2316,2.232,2.2317,2.2312,2.2313,2.2302,2.231,2.2294,2.2304,2.2293,2.2294,2.2291,2.2292,2.2291,2.2273,2.2297,2.2339,2.2343,2.2291,2.229,2.229,0,2.2325,2.2332,2.2343,2.2343,2.2336,2.2342,2.2339,2.2335,2.2337,2.2337,2.2337,2.2338,2.2339,2.2339,2.2329,2.2318,2.2339,2.2323,2.2335,2.2335,2.2339,2.2339,2.2381,2.2342,2.2342,2.2342,2.2342,0,2.2361,2.2372,2.2358,2.2365,2.2376,2.2364,2.2376,2.2372,2.2368,2.2373,2.2359,2.2364,2.235,2.2353,2.2345,2.2353,2.2354,2.2349,2.2347,2.235,2.235,2.235,2.2347,2.2343,2.2342,2.2342,2.2342,0,2.2399,2.239,2.2401,2.2394,2.2392,2.2401,2.2394,2.24,2.2393,2.2399,2.24,2.2389,2.2392,2.2382,2.2383,2.2377,2.2389,2.2384,2.239,2.2388,2.24,2.2398,2.2442,2.2447,2.2406,2.2406,2.2407,0,2.2422,2.243,2.2424,2.2426,2.2424,2.2428,2.2429,2.2417,2.2418,2.2415,2.242,2.2422,2.2422,2.2427,2.2419,2.2419,2.2413,2.2429,2.2413,2.2416,2.2412,2.2411,2.2411,2.2432,2.2432,2.2433,2.2433,0,2.2463,2.2457,2.246,2.246,2.2462,2.2461,2.246,2.2463,2.2449,2.2452,2.2454,2.2454,2.2455,2.2456,2.2454,2.2451,2.2439,2.2438,2.244,2.2443,2.2446,2.2443,2.2398,2.2437,2.2436,2.2436,2.2436,2.2436,2.2493,2.2499,2.2495,2.2497,2.2495,2.2493,2.2498,2.2491,2.2493,2.2493,2.2485,2.2489,2.2484,2.2481,2.2478,2.248,2.2472,2.2476,2.2477,2.2478,2.2479,2.2446,2.248,2.2479,2.2479,2.2479,2.2479,0,2.2532,2.2528,2.253,2.2528,2.253,2.2519,2.2517,2.2519,2.2522,2.2519,2.2519,2.2521,2.2522,2.2513,2.2513,2.2516,2.251,2.2516,2.2515,2.2514,2.2487,2.2484,2.252,2.252,2.252,2.252,2.252,2.252,2.2552,2.2561,2.2555,2.2562,2.2557,2.2561,2.256,2.2558,2.2555,2.2558,2.2559,2.2553,2.2547,2.2546,2.2546,2.2543,2.2543,2.255,2.2545,2.252,2.2516,2.2512,2.2509,2.255,2.255,2.2572,2.2572,2.2572]}]]